Time,TemperatureF,DewpointF,PressureIn,WindDirection,WindDirectionDegrees,WindSpeedMPH,WindSpeedGustMPH,Humidity,HourlyPrecipIn,Conditions,Clouds,dailyrainin,SoftwareType,DateUTC
2013-04-29 00:01:00,55.8,55.8,29.98,East,99,0.0,0.0,100,0.00,RA,,0.00,WeatherDisplay:10.37,2013-04-29 04:01:00,
2013-04-29 00:06:00,55.8,55.8,29.98,East,99,1.2,1.2,100,0.00,RA,,0.00,WeatherDisplay:10.37,2013-04-29 04:06:00,
2013-04-29 00:11:00,55.7,55.7,29.98,East,99,0.0,0.0,100,0.00,RA,,0.00,WeatherDisplay:10.37,2013-04-29 04:11:00,
2013-04-29 00:16:00,55.7,55.7,29.99,East,99,0.0,0.0,100,0.00,OVC,,0.00,WeatherDisplay:10.37,2013-04-29 04:16:00,
2013-04-29 00:21:00,55.7,55.7,29.99,East,99,0.0,0.2,100,0.00,BKN,,0.00,WeatherDisplay:10.37,2013-04-29 04:21:00,
2013-04-29 00:26:00,55.7,55.7,29.99,ESE,115,1.2,0.0,100,0.00,BKN,,0.00,WeatherDisplay:10.37,2013-04-29 04:26:00,
2013-04-29 00:31:00,55.7,55.7,30.00,NNW,344,0.0,0.0,100,0.00,OVC,,0.00,WeatherDisplay:10.37,2013-04-29 04:31:00,
2013-04-29 00:36:00,55.7,55.7,30.00,North,355,0.0,0.0,100,0.00,OVC,,0.00,WeatherDisplay:10.37,2013-04-29 04:36:00,
2013-04-29 00:41:00,55.7,55.7,30.00,SSE,166,0.0,0.0,100,0.00,OVC,,0.00,WeatherDisplay:10.37,2013-04-29 04:41:00,
2013-04-29 00:46:00,55.6,55.6,30.01,SSE,160,0.0,0.0,100,0.00,OVC,,0.00,WeatherDisplay:10.37,2013-04-29 04:46:00,
2013-04-29 00:51:00,55.6,55.6,30.01,SSE,160,0.0,0.0,100,0.00,OVC,,0.00,WeatherDisplay:10.37,2013-04-29 04:51:00,
2013-04-29 00:56:00,55.7,55.7,30.02,NW,325,2.3,2.3,100,0.00,OVC,,0.00,WeatherDisplay:10.37,2013-04-29 04:56:00,
2013-04-29 01:01:00,55.7,55.7,30.02,NW,325,0.0,0.0,100,0.00,OVC,,0.00,WeatherDisplay:10.37,2013-04-29 05:01:00,
2013-04-29 01:06:00,55.7,55.7,30.02,NW,325,0.0,0.0,100,0.01,RA,,0.01,WeatherDisplay:10.37,2013-04-29 05:06:00,
2013-04-29 01:11:00,55.7,55.7,30.02,NE,42,0.0,0.0,100,0.01,RA,,0.01,WeatherDisplay:10.37,2013-04-29 05:11:00,
2013-04-29 01:16:00,55.7,55.7,30.01,NE,42,0.0,0.0,100,0.01,RA,,0.01,WeatherDisplay:10.37,2013-04-29 05:16:00,
2013-04-29 01:21:00,55.7,55.7,30.01,NE,42,0.0,0.0,100,0.01,OVC,,0.01,WeatherDisplay:10.37,2013-04-29 05:21:00,
2013-04-29 01:26:00,55.7,55.7,30.01,NE,42,0.0,0.0,100,0.01,OVC,,0.01,WeatherDisplay:10.37,2013-04-29 05:26:00,
2013-04-29 01:31:00,55.7,55.7,30.01,NE,42,0.0,0.0,100,0.01,OVC,,0.01,WeatherDisplay:10.37,2013-04-29 05:31:00,
2013-04-29 01:36:00,55.7,55.7,30.02,NE,42,0.0,0.0,100,0.01,OVC,,0.01,WeatherDisplay:10.37,2013-04-29 05:36:00,
2013-04-29 01:41:00,55.7,55.7,30.01,NE,42,0.0,0.0,100,0.01,OVC,,0.01,WeatherDisplay:10.37,2013-04-29 05:41:00,
2013-04-29 01:46:00,55.7,55.7,30.01,NE,42,0.0,0.0,100,0.01,OVC,,0.01,WeatherDisplay:10.37,2013-04-29 05:46:00,
2013-04-29 01:51:00,55.7,55.7,30.02,NE,42,0.0,0.0,100,0.01,OVC,,0.01,WeatherDisplay:10.37,2013-04-29 05:51:00,
2013-04-29 01:56:00,55.7,55.7,30.02,NE,42,0.0,0.0,100,0.01,OVC,,0.01,WeatherDisplay:10.37,2013-04-29 05:56:00,
2013-04-29 02:01:00,55.7,55.7,30.01,NE,42,0.0,0.0,100,0.01,OVC,,0.01,WeatherDisplay:10.37,2013-04-29 06:01:00,
2013-04-29 02:06:00,55.7,55.7,30.01,NE,42,0.0,0.0,100,0.00,OVC,,0.01,WeatherDisplay:10.37,2013-04-29 06:06:00,
2013-04-29 02:11:00,55.7,55.7,30.01,NE,42,0.0,0.0,100,0.00,OVC,,0.01,WeatherDisplay:10.37,2013-04-29 06:11:00,
2013-04-29 02:16:00,55.7,55.7,30.01,NE,42,0.0,0.0,100,0.00,OVC,,0.01,WeatherDisplay:10.37,2013-04-29 06:16:00,
2013-04-29 02:21:00,55.8,55.8,30.01,NE,42,0.0,0.0,100,0.00,OVC,,0.01,WeatherDisplay:10.37,2013-04-29 06:21:00,
2013-04-29 02:26:00,55.8,55.8,30.01,NE,42,0.0,0.0,100,0.00,OVC,,0.01,WeatherDisplay:10.37,2013-04-29 06:26:00,
2013-04-29 02:31:00,55.8,55.8,30.00,NE,42,0.0,0.0,100,0.00,OVC,,0.01,WeatherDisplay:10.37,2013-04-29 06:31:00,
2013-04-29 02:36:00,55.7,55.7,30.00,NE,42,0.0,0.0,100,0.00,OVC,,0.01,WeatherDisplay:10.37,2013-04-29 06:36:00,
2013-04-29 02:41:00,55.7,55.7,30.00,NE,42,0.0,0.0,100,0.00,OVC,,0.01,WeatherDisplay:10.37,2013-04-29 06:41:00,
2013-04-29 02:46:00,55.7,55.7,30.00,NE,42,0.0,0.0,100,0.00,OVC,,0.01,WeatherDisplay:10.37,2013-04-29 06:46:00,
2013-04-29 02:51:00,55.7,55.7,30.00,NE,42,0.0,0.0,100,0.00,OVC,,0.01,WeatherDisplay:10.37,2013-04-29 06:51:00,
2013-04-29 02:56:00,55.6,55.6,29.99,NE,42,0.0,0.0,100,0.00,OVC,,0.01,WeatherDisplay:10.37,2013-04-29 06:56:00,
2013-04-29 03:01:00,55.6,55.6,29.99,NE,48,0.0,0.0,100,0.00,OVC,,0.01,WeatherDisplay:10.37,2013-04-29 07:01:00,
2013-04-29 03:06:00,55.6,55.6,29.98,NE,48,0.0,0.0,100,0.00,OVC,,0.01,WeatherDisplay:10.37,2013-04-29 07:06:00,
2013-04-29 03:11:00,55.5,55.5,29.98,East,93,1.2,0.0,100,0.00,-RA,,0.01,WeatherDisplay:10.37,2013-04-29 07:11:00,
2013-04-29 03:16:00,55.5,55.5,29.98,East,93,0.0,0.0,100,0.00,-RA,,0.01,WeatherDisplay:10.37,2013-04-29 07:16:00,
2013-04-29 03:21:00,55.5,55.5,29.98,East,93,0.0,0.0,100,0.00,OVC,,0.01,WeatherDisplay:10.37,2013-04-29 07:21:00,
2013-04-29 03:26:00,55.5,55.5,29.98,East,94,0.0,0.0,100,0.00,OVC,,0.01,WeatherDisplay:10.37,2013-04-29 07:26:00,
2013-04-29 03:31:00,55.4,55.4,29.97,East,93,0.0,0.0,100,0.00,OVC,,0.01,WeatherDisplay:10.37,2013-04-29 07:31:00,
2013-04-29 03:36:00,55.4,55.4,29.97,East,93,0.0,0.0,100,0.00,OVC,,0.01,WeatherDisplay:10.37,2013-04-29 07:36:00,
2013-04-29 03:41:00,55.3,55.3,29.97,East,93,0.0,0.0,100,0.00,SCT,,0.01,WeatherDisplay:10.37,2013-04-29 07:41:00,
2013-04-29 03:46:00,55.3,55.3,29.97,East,94,0.0,0.0,100,0.00,SCT,,0.01,WeatherDisplay:10.37,2013-04-29 07:46:00,
2013-04-29 03:51:00,55.3,55.3,29.97,SE,132,0.0,0.0,100,0.00,SCT,,0.01,WeatherDisplay:10.37,2013-04-29 07:51:00,
2013-04-29 03:56:00,55.3,55.3,29.97,SE,132,0.0,0.0,100,0.00,SCT,,0.01,WeatherDisplay:10.37,2013-04-29 07:56:00,
2013-04-29 04:01:00,55.2,55.2,29.97,SE,132,0.0,0.0,100,0.00,OVC,,0.01,WeatherDisplay:10.37,2013-04-29 08:01:00,
2013-04-29 04:06:00,55.3,55.3,29.97,SE,132,0.0,0.0,100,0.00,OVC,,0.01,WeatherDisplay:10.37,2013-04-29 08:06:00,
2013-04-29 04:11:00,55.2,55.2,29.98,SE,132,0.0,0.0,100,0.00,OVC,,0.01,WeatherDisplay:10.37,2013-04-29 08:11:00,
2013-04-29 04:16:00,55.2,55.2,29.98,SE,132,0.0,0.0,100,0.00,OVC,,0.01,WeatherDisplay:10.37,2013-04-29 08:16:00,
2013-04-29 04:21:00,55.2,55.2,29.98,SE,132,0.0,0.0,100,0.00,SCT,,0.01,WeatherDisplay:10.37,2013-04-29 08:21:00,
2013-04-29 04:26:00,55.1,55.1,29.98,SE,132,0.0,0.0,100,0.00,SCT,,0.01,WeatherDisplay:10.37,2013-04-29 08:26:00,
2013-04-29 04:31:00,55.1,55.1,29.98,SE,132,0.0,0.0,100,0.00,SCT,,0.01,WeatherDisplay:10.37,2013-04-29 08:31:00,
2013-04-29 04:36:00,55.1,55.1,29.98,SE,132,0.0,0.0,100,0.00,SCT,,0.01,WeatherDisplay:10.37,2013-04-29 08:36:00,
2013-04-29 04:41:00,55.1,55.1,29.98,SE,132,0.0,0.0,100,0.00,OVC,,0.01,WeatherDisplay:10.37,2013-04-29 08:41:00,
2013-04-29 04:46:00,55.1,55.1,29.98,SE,132,0.0,0.0,100,0.00,OVC,,0.01,WeatherDisplay:10.37,2013-04-29 08:46:00,
2013-04-29 04:51:00,55.2,55.2,29.98,SE,132,0.0,0.0,100,0.00,OVC,,0.01,WeatherDisplay:10.37,2013-04-29 08:51:00,
2013-04-29 04:56:00,55.2,55.2,29.98,SE,132,0.0,0.0,100,0.00,OVC,,0.01,WeatherDisplay:10.37,2013-04-29 08:56:00,
2013-04-29 05:01:00,55.3,55.3,29.98,SE,132,0.0,0.0,100,0.00,OVC,,0.01,WeatherDisplay:10.37,2013-04-29 09:01:00,
2013-04-29 05:06:00,55.3,55.3,29.98,SE,132,0.0,0.0,100,0.00,OVC,,0.01,WeatherDisplay:10.37,2013-04-29 09:06:00,
2013-04-29 05:11:00,55.3,55.3,29.97,SE,132,0.0,0.0,100,0.00,OVC,,0.01,WeatherDisplay:10.37,2013-04-29 09:11:00,
2013-04-29 05:16:00,55.3,55.3,29.97,SE,132,0.0,0.0,100,0.00,OVC,,0.01,WeatherDisplay:10.37,2013-04-29 09:16:00,
2013-04-29 05:21:00,55.3,55.3,29.97,SE,132,0.0,0.0,100,0.00,OVC,,0.01,WeatherDisplay:10.37,2013-04-29 09:21:00,
2013-04-29 05:26:00,55.3,55.3,29.97,SE,132,0.0,0.0,100,0.00,OVC,,0.01,WeatherDisplay:10.37,2013-04-29 09:26:00,
2013-04-29 05:31:00,55.4,55.4,29.97,SE,132,0.0,0.0,100,0.00,OVC,,0.01,WeatherDisplay:10.37,2013-04-29 09:31:00,
2013-04-29 05:36:00,55.4,55.4,29.97,SE,132,0.0,0.0,100,0.00,OVC,,0.01,WeatherDisplay:10.37,2013-04-29 09:36:00,
2013-04-29 05:41:00,55.4,55.4,29.97,SE,132,0.0,0.0,100,0.00,OVC,,0.01,WeatherDisplay:10.37,2013-04-29 09:41:00,
2013-04-29 05:46:00,55.4,55.4,29.97,SE,132,0.0,0.0,100,0.00,OVC,,0.01,WeatherDisplay:10.37,2013-04-29 09:46:00,
2013-04-29 05:51:00,55.4,55.4,29.97,SE,132,0.0,0.0,100,0.00,OVC,,0.01,WeatherDisplay:10.37,2013-04-29 09:51:00,
2013-04-29 05:56:00,55.4,55.4,29.97,SE,132,0.0,0.0,100,0.00,OVC,,0.01,WeatherDisplay:10.37,2013-04-29 09:56:00,
2013-04-29 06:01:00,55.4,55.4,29.97,SE,132,0.0,0.0,100,0.00,OVC,,0.01,WeatherDisplay:10.37,2013-04-29 10:01:00,
2013-04-29 06:06:00,55.4,55.4,29.97,East,80,1.2,0.0,100,0.00,OVC,,0.01,WeatherDisplay:10.37,2013-04-29 10:06:00,
2013-04-29 06:11:00,55.4,55.4,29.97,East,81,0.0,0.0,100,0.00,OVC,,0.01,WeatherDisplay:10.37,2013-04-29 10:11:00,
2013-04-29 06:16:00,55.5,55.5,29.98,East,81,0.0,0.0,100,0.00,OVC,,0.01,WeatherDisplay:10.37,2013-04-29 10:16:00,
2013-04-29 06:21:00,55.5,55.5,29.97,East,81,0.0,0.0,100,0.00,OVC,,0.01,WeatherDisplay:10.37,2013-04-29 10:21:00,
2013-04-29 06:26:00,55.5,55.5,29.98,East,81,0.0,0.0,100,0.00,OVC,,0.01,WeatherDisplay:10.37,2013-04-29 10:26:00,
2013-04-29 06:31:00,55.5,55.5,29.98,East,81,0.0,0.0,100,0.00,OVC,,0.01,WeatherDisplay:10.37,2013-04-29 10:31:00,
2013-04-29 06:36:00,55.5,55.5,29.98,East,81,0.0,0.0,100,0.00,OVC,,0.01,WeatherDisplay:10.37,2013-04-29 10:36:00,
2013-04-29 06:41:00,55.5,55.5,29.98,East,81,0.0,0.0,100,0.00,OVC,,0.01,WeatherDisplay:10.37,2013-04-29 10:41:00,
2013-04-29 06:46:00,55.6,55.6,29.98,East,81,0.0,0.0,100,0.00,OVC,,0.01,WeatherDisplay:10.37,2013-04-29 10:46:00,
2013-04-29 06:51:00,55.6,55.6,29.98,East,81,0.0,0.0,100,0.00,OVC,,0.01,WeatherDisplay:10.37,2013-04-29 10:51:00,
2013-04-29 06:56:00,55.6,55.6,29.98,East,81,0.0,0.0,100,0.00,OVC,,0.01,WeatherDisplay:10.37,2013-04-29 10:56:00,
2013-04-29 07:01:00,55.6,55.6,29.98,East,81,0.0,0.0,100,0.00,OVC,,0.01,WeatherDisplay:10.37,2013-04-29 11:01:00,
2013-04-29 07:06:00,55.6,55.6,29.98,East,81,0.0,0.0,100,0.00,OVC,,0.01,WeatherDisplay:10.37,2013-04-29 11:06:00,
2013-04-29 07:11:00,55.6,55.6,29.98,East,81,0.0,0.0,100,0.00,OVC,,0.01,WeatherDisplay:10.37,2013-04-29 11:11:00,
2013-04-29 07:16:00,55.7,55.7,29.99,East,81,0.0,0.0,100,0.00,OVC,,0.01,WeatherDisplay:10.37,2013-04-29 11:16:00,
2013-04-29 07:21:00,55.7,55.7,30.00,East,81,0.0,0.0,100,0.00,-DZ,,0.01,WeatherDisplay:10.37,2013-04-29 11:21:00,
2013-04-29 07:26:00,55.7,55.7,30.00,East,81,0.0,0.0,100,0.00,-DZ,,0.01,WeatherDisplay:10.37,2013-04-29 11:26:00,
2013-04-29 07:31:00,55.7,55.7,30.00,East,81,0.0,0.0,100,0.00,-DZ,,0.01,WeatherDisplay:10.37,2013-04-29 11:31:00,
2013-04-29 07:36:00,55.7,55.7,30.00,East,81,0.0,0.0,100,0.00,-DZ,,0.01,WeatherDisplay:10.37,2013-04-29 11:36:00,
2013-04-29 07:41:00,55.8,55.8,30.00,East,81,0.0,0.0,100,0.00,-DZ,,0.01,WeatherDisplay:10.37,2013-04-29 11:41:00,
2013-04-29 07:46:00,55.8,55.8,30.01,East,81,0.0,0.0,100,0.00,-DZ,,0.01,WeatherDisplay:10.37,2013-04-29 11:46:00,
2013-04-29 07:51:00,55.9,55.9,30.01,East,81,0.0,0.0,100,0.00,-DZ,,0.01,WeatherDisplay:10.37,2013-04-29 11:51:00,
2013-04-29 07:56:00,55.9,55.9,30.01,East,81,0.0,0.0,100,0.00,-DZ,,0.01,WeatherDisplay:10.37,2013-04-29 11:56:00,
2013-04-29 08:01:00,55.9,55.9,30.01,East,81,0.0,0.0,100,0.00,-DZ,,0.01,WeatherDisplay:10.37,2013-04-29 12:01:00,
2013-04-29 08:06:00,55.9,55.9,30.01,East,81,0.0,0.0,100,0.00,-DZ,,0.01,WeatherDisplay:10.37,2013-04-29 12:06:00,
2013-04-29 08:11:00,56.0,56.0,30.01,East,81,0.0,0.0,100,0.00,-DZ,,0.01,WeatherDisplay:10.37,2013-04-29 12:11:00,
2013-04-29 08:16:00,56.0,56.0,30.01,East,81,0.0,0.0,100,0.00,-DZ,,0.01,WeatherDisplay:10.37,2013-04-29 12:16:00,
2013-04-29 08:21:00,56.0,56.0,30.02,East,81,0.0,0.0,100,0.00,-DZ,,0.01,WeatherDisplay:10.37,2013-04-29 12:21:00,
2013-04-29 08:26:00,56.1,56.1,30.02,East,81,0.0,0.0,100,0.00,-DZ,,0.01,WeatherDisplay:10.37,2013-04-29 12:26:00,
2013-04-29 08:31:00,56.2,56.2,30.02,East,81,0.0,0.0,100,0.00,-DZ,,0.01,WeatherDisplay:10.37,2013-04-29 12:31:00,
2013-04-29 08:36:00,56.2,56.2,30.02,East,81,0.0,0.0,100,0.00,-DZ,,0.01,WeatherDisplay:10.37,2013-04-29 12:36:00,
2013-04-29 08:41:00,56.3,56.3,30.02,East,81,0.0,0.0,100,0.00,-DZ,,0.01,WeatherDisplay:10.37,2013-04-29 12:41:00,
2013-04-29 08:46:00,56.3,56.3,30.02,East,81,0.0,0.0,100,0.00,-DZ,,0.01,WeatherDisplay:10.37,2013-04-29 12:46:00,
2013-04-29 08:51:00,56.4,56.4,30.01,East,81,0.0,0.0,100,0.00,-DZ,,0.01,WeatherDisplay:10.37,2013-04-29 12:51:00,
2013-04-29 08:56:00,56.5,56.5,30.01,East,81,0.0,0.0,100,0.00,-DZ,,0.01,WeatherDisplay:10.37,2013-04-29 12:56:00,
2013-04-29 09:01:00,56.6,56.6,30.02,East,81,0.0,0.0,100,0.00,-DZ,,0.01,WeatherDisplay:10.37,2013-04-29 13:01:00,
2013-04-29 09:06:00,56.6,56.6,30.02,East,81,0.0,0.0,100,0.00,-DZ,,0.01,WeatherDisplay:10.37,2013-04-29 13:06:00,
2013-04-29 09:11:00,56.7,56.7,30.02,East,81,0.0,0.0,100,0.00,-DZ,,0.01,WeatherDisplay:10.37,2013-04-29 13:11:00,
2013-04-29 09:16:00,56.7,56.7,30.02,East,81,0.0,0.0,100,0.00,-DZ,,0.01,WeatherDisplay:10.37,2013-04-29 13:16:00,
2013-04-29 09:21:00,56.8,56.8,30.01,East,81,0.0,0.0,100,0.00,-DZ,,0.01,WeatherDisplay:10.37,2013-04-29 13:21:00,
2013-04-29 09:26:00,56.9,56.9,30.01,East,81,0.0,0.0,100,0.00,-DZ,,0.01,WeatherDisplay:10.37,2013-04-29 13:26:00,
2013-04-29 09:31:00,57.0,57.0,30.01,East,81,0.0,0.0,100,0.00,-DZ,,0.01,WeatherDisplay:10.37,2013-04-29 13:31:00,
2013-04-29 09:36:00,57.0,57.0,30.01,East,81,0.0,0.0,100,0.00,-DZ,,0.01,WeatherDisplay:10.37,2013-04-29 13:36:00,
2013-04-29 09:41:00,57.2,57.2,30.01,East,81,0.0,0.0,100,0.00,-DZ,,0.01,WeatherDisplay:10.37,2013-04-29 13:41:00,
2013-04-29 09:46:00,57.2,57.2,30.02,East,81,0.0,0.0,100,0.00,-DZ,,0.01,WeatherDisplay:10.37,2013-04-29 13:46:00,
2013-04-29 09:51:00,57.2,57.2,30.02,East,81,0.0,0.0,100,0.00,-DZ,,0.01,WeatherDisplay:10.37,2013-04-29 13:51:00,
2013-04-29 09:56:00,57.3,57.3,30.02,East,81,0.0,0.0,100,0.00,-DZ,,0.01,WeatherDisplay:10.37,2013-04-29 13:56:00,
2013-04-29 10:01:00,57.3,57.3,30.02,East,81,0.0,0.0,100,0.00,-DZ,,0.01,WeatherDisplay:10.37,2013-04-29 14:01:00,
2013-04-29 10:07:00,57.4,57.4,30.02,East,81,0.0,0.0,100,0.00,-DZ,,0.01,WeatherDisplay:10.37,2013-04-29 14:07:00,
2013-04-29 10:12:00,57.5,57.5,30.02,East,81,0.0,0.0,100,0.00,-DZ,,0.01,WeatherDisplay:10.37,2013-04-29 14:12:00,
2013-04-29 10:17:00,57.5,57.5,30.02,East,81,0.0,0.0,100,0.00,-DZ,,0.01,WeatherDisplay:10.37,2013-04-29 14:17:00,
2013-04-29 10:22:00,57.5,57.5,30.02,East,81,0.0,0.0,100,0.00,-DZ,,0.01,WeatherDisplay:10.37,2013-04-29 14:22:00,
2013-04-29 10:27:00,57.6,57.6,30.02,East,81,0.0,0.0,100,0.00,-DZ,,0.01,WeatherDisplay:10.37,2013-04-29 14:27:00,
2013-04-29 10:32:00,57.7,57.7,30.02,East,81,0.0,0.0,100,0.00,-DZ,,0.01,WeatherDisplay:10.37,2013-04-29 14:32:00,
2013-04-29 10:37:00,57.8,57.8,30.02,East,81,0.0,0.0,100,0.00,-DZ,,0.01,WeatherDisplay:10.37,2013-04-29 14:37:00,
2013-04-29 10:42:00,57.8,57.8,30.02,East,81,0.0,0.0,100,0.00,-DZ,,0.01,WeatherDisplay:10.37,2013-04-29 14:42:00,
2013-04-29 10:47:00,57.8,57.8,30.02,East,81,0.0,0.0,100,0.00,-DZ,,0.01,WeatherDisplay:10.37,2013-04-29 14:47:00,
2013-04-29 10:52:00,57.9,57.9,30.02,East,81,0.0,0.0,100,0.00,-DZ,,0.01,WeatherDisplay:10.37,2013-04-29 14:52:00,
2013-04-29 10:57:00,58.0,58.0,30.02,East,81,0.0,0.0,100,0.00,-DZ,,0.01,WeatherDisplay:10.37,2013-04-29 14:57:00,
2013-04-29 11:02:00,58.1,58.1,30.02,East,81,0.0,0.0,100,0.00,-DZ,,0.01,WeatherDisplay:10.37,2013-04-29 15:02:00,
2013-04-29 11:07:00,58.2,58.2,30.02,East,81,0.0,0.0,100,0.00,-DZ,,0.01,WeatherDisplay:10.37,2013-04-29 15:07:00,
2013-04-29 11:12:00,58.3,58.3,30.02,East,81,0.0,0.0,100,0.00,OVC,,0.01,WeatherDisplay:10.37,2013-04-29 15:12:00,
2013-04-29 11:17:00,58.4,58.4,30.02,East,81,0.0,0.0,100,0.00,OVC,,0.01,WeatherDisplay:10.37,2013-04-29 15:17:00,
2013-04-29 11:22:00,58.4,58.4,30.02,East,81,0.0,0.0,100,0.00,OVC,,0.01,WeatherDisplay:10.37,2013-04-29 15:22:00,
2013-04-29 11:27:00,58.3,58.3,30.02,East,81,0.0,0.0,100,0.00,OVC,,0.01,WeatherDisplay:10.37,2013-04-29 15:27:00,
2013-04-29 11:32:00,58.3,58.3,30.02,East,81,0.0,0.0,100,0.00,OVC,,0.01,WeatherDisplay:10.37,2013-04-29 15:32:00,
2013-04-29 11:37:00,58.4,58.4,30.02,East,81,0.0,0.0,100,0.00,OVC,,0.01,WeatherDisplay:10.37,2013-04-29 15:37:00,
2013-04-29 11:42:00,58.6,58.6,30.02,East,81,0.0,0.0,100,0.00,OVC,,0.01,WeatherDisplay:10.37,2013-04-29 15:42:00,
2013-04-29 11:47:00,58.8,58.8,30.03,East,81,0.0,0.0,100,0.00,OVC,,0.01,WeatherDisplay:10.37,2013-04-29 15:47:00,
2013-04-29 11:52:00,58.9,58.9,30.03,East,81,0.0,0.0,100,0.00,OVC,,0.01,WeatherDisplay:10.37,2013-04-29 15:52:00,
2013-04-29 11:57:00,59.1,59.1,30.02,East,81,0.0,0.0,100,0.00,OVC,,0.01,WeatherDisplay:10.37,2013-04-29 15:57:00,
2013-04-29 12:02:00,59.2,59.2,30.02,East,81,0.0,0.0,100,0.00,OVC,,0.01,WeatherDisplay:10.37,2013-04-29 16:02:00,
2013-04-29 12:07:00,59.4,59.4,30.03,ESE,111,1.2,0.0,100,0.00,OVC,,0.01,WeatherDisplay:10.37,2013-04-29 16:07:00,
2013-04-29 12:12:00,59.5,59.5,30.03,SE,143,1.2,0.0,100,0.00,OVC,,0.01,WeatherDisplay:10.37,2013-04-29 16:12:00,
2013-04-29 12:17:00,59.6,59.6,30.03,SE,144,0.0,0.0,100,0.00,OVC,,0.01,WeatherDisplay:10.37,2013-04-29 16:17:00,
2013-04-29 12:22:00,59.9,59.9,30.03,West,270,1.2,1.2,100,0.00,OVC,,0.01,WeatherDisplay:10.37,2013-04-29 16:22:00,
2013-04-29 12:27:00,60.1,60.1,30.02,South,172,0.0,0.2,100,0.00,OVC,,0.01,WeatherDisplay:10.37,2013-04-29 16:27:00,
2013-04-29 12:32:00,60.2,60.2,30.02,South,171,0.0,0.0,100,0.00,OVC,,0.01,WeatherDisplay:10.37,2013-04-29 16:32:00,
2013-04-29 12:37:00,60.2,60.2,30.02,NW,326,2.0,2.0,100,0.00,OVC,,0.01,WeatherDisplay:10.37,2013-04-29 16:37:00,
2013-04-29 12:42:00,60.2,60.2,30.02,WNW,287,2.3,2.3,100,0.00,OVC,,0.01,WeatherDisplay:10.37,2013-04-29 16:42:00,
2013-04-29 12:47:00,60.5,60.5,30.02,WSW,255,0.0,0.0,100,0.00,OVC,,0.01,WeatherDisplay:10.37,2013-04-29 16:47:00,
2013-04-29 12:52:00,60.8,60.8,30.02,WSW,256,1.2,0.0,100,0.00,OVC,,0.01,WeatherDisplay:10.37,2013-04-29 16:52:00,
2013-04-29 12:57:00,61.1,61.1,30.02,WSW,256,0.0,0.0,100,0.00,OVC,,0.01,WeatherDisplay:10.37,2013-04-29 16:57:00,
2013-04-29 13:02:00,61.1,61.1,30.02,NW,317,1.2,1.2,100,0.00,OVC,,0.01,WeatherDisplay:10.37,2013-04-29 17:02:00,
2013-04-29 13:07:00,61.1,61.1,30.01,NW,317,0.0,0.0,100,0.00,OVC,,0.01,WeatherDisplay:10.37,2013-04-29 17:07:00,
2013-04-29 13:12:00,61.3,61.3,30.01,NW,317,1.2,1.2,100,0.00,BKN,,0.01,WeatherDisplay:10.37,2013-04-29 17:12:00,
2013-04-29 13:17:00,61.7,61.7,30.01,NW,317,0.0,0.0,100,0.00,BKN,,0.01,WeatherDisplay:10.37,2013-04-29 17:17:00,
2013-04-29 13:22:00,61.9,61.9,30.01,North,5,0.0,0.0,100,0.00,BKN,,0.01,WeatherDisplay:10.37,2013-04-29 17:22:00,
2013-04-29 13:27:00,62.0,62.0,30.00,NE,40,0.0,0.0,100,0.00,BKN,,0.01,WeatherDisplay:10.37,2013-04-29 17:27:00,
2013-04-29 13:32:00,62.5,61.0,30.00,NW,304,0.0,0.0,95,0.00,BKN,,0.01,WeatherDisplay:10.37,2013-04-29 17:32:00,
2013-04-29 13:37:00,63.2,61.4,30.00,NW,318,1.2,0.0,94,0.00,BKN,,0.01,WeatherDisplay:10.37,2013-04-29 17:37:00,
2013-04-29 13:42:00,63.6,60.6,30.00,NW,325,0.0,0.0,90,0.00,BKN,,0.01,WeatherDisplay:10.37,2013-04-29 17:42:00,
2013-04-29 13:47:00,63.9,59.6,30.00,NW,325,0.0,0.0,86,0.00,BKN,,0.01,WeatherDisplay:10.37,2013-04-29 17:47:00,
2013-04-29 13:52:00,64.2,60.2,30.00,WSW,241,1.2,0.0,87,0.00,BKN,,0.01,WeatherDisplay:10.37,2013-04-29 17:52:00,
2013-04-29 13:57:00,64.8,61.8,30.00,WNW,290,2.3,2.3,90,0.00,BKN,,0.01,WeatherDisplay:10.37,2013-04-29 17:57:00,
2013-04-29 14:02:00,65.5,61.2,29.99,WSW,239,3.5,0.0,86,0.00,BKN,,0.01,WeatherDisplay:10.37,2013-04-29 18:02:00,
2013-04-29 14:07:00,66.2,61.2,29.99,NW,322,3.5,3.5,84,0.00,BKN,,0.01,WeatherDisplay:10.37,2013-04-29 18:07:00,
2013-04-29 14:12:00,66.8,59.7,29.99,NNW,331,2.3,2.3,78,0.00,BKN,,0.01,WeatherDisplay:10.37,2013-04-29 18:12:00,
2013-04-29 14:17:00,67.5,61.1,29.98,NNW,336,0.0,0.0,80,0.00,BKN,,0.01,WeatherDisplay:10.37,2013-04-29 18:17:00,
2013-04-29 14:22:00,67.9,61.1,29.98,WNW,303,0.0,0.5,79,0.00,BKN,,0.01,WeatherDisplay:10.37,2013-04-29 18:22:00,
2013-04-29 14:27:00,68.5,61.7,29.98,NE,51,1.2,1.2,79,0.00,BKN,,0.01,WeatherDisplay:10.37,2013-04-29 18:27:00,
2013-04-29 14:32:00,68.7,59.7,29.98,WNW,292,2.3,2.3,73,0.00,BKN,,0.01,WeatherDisplay:10.37,2013-04-29 18:32:00,
2013-04-29 14:37:00,69.2,61.7,29.98,SW,214,2.3,2.3,77,0.00,BKN,,0.01,WeatherDisplay:10.37,2013-04-29 18:37:00,
2013-04-29 14:42:00,69.5,60.1,29.98,SSW,194,0.0,0.0,72,0.00,BKN,,0.01,WeatherDisplay:10.37,2013-04-29 18:42:00,
2013-04-29 14:47:00,69.3,58.3,29.97,West,273,0.0,0.0,68,0.00,BKN,,0.01,WeatherDisplay:10.37,2013-04-29 18:47:00,
2013-04-29 14:52:00,69.3,60.3,29.97,NW,315,0.0,0.0,73,0.00,BKN,,0.01,WeatherDisplay:10.37,2013-04-29 18:52:00,
2013-04-29 14:57:00,69.2,59.0,29.97,WSW,253,2.0,2.0,70,0.00,BKN,,0.01,WeatherDisplay:10.37,2013-04-29 18:57:00,
2013-04-29 15:02:00,69.3,60.3,29.97,WNW,287,2.3,2.3,73,0.00,BKN,,0.01,WeatherDisplay:10.37,2013-04-29 19:02:00,
2013-04-29 15:07:00,69.2,60.2,29.97,NW,326,2.3,2.3,73,0.00,BKN,,0.01,WeatherDisplay:10.37,2013-04-29 19:07:00,
2013-04-29 15:12:00,68.9,59.9,29.96,NW,319,0.0,0.0,73,0.00,BKN,,0.01,WeatherDisplay:10.37,2013-04-29 19:12:00,
2013-04-29 15:17:00,68.8,59.8,29.96,WNW,302,2.3,2.3,73,0.00,BKN,,0.01,WeatherDisplay:10.37,2013-04-29 19:17:00,
2013-04-29 15:22:00,68.7,60.1,29.96,WSW,256,1.2,0.0,74,0.00,BKN,,0.01,WeatherDisplay:10.37,2013-04-29 19:22:00,
2013-04-29 15:27:00,68.7,58.5,29.96,NNE,26,1.2,1.2,70,0.00,BKN,,0.01,WeatherDisplay:10.37,2013-04-29 19:27:00,
2013-04-29 15:32:00,68.9,59.9,29.96,SSW,210,1.2,0.0,73,0.00,BKN,,0.01,WeatherDisplay:10.37,2013-04-29 19:32:00,
2013-04-29 15:37:00,69.1,58.1,29.95,SSW,210,0.0,0.0,68,0.00,BKN,,0.01,WeatherDisplay:10.37,2013-04-29 19:37:00,
2013-04-29 15:42:00,69.2,58.6,29.95,South,186,1.2,1.2,69,0.00,BKN,,0.01,WeatherDisplay:10.37,2013-04-29 19:42:00,
2013-04-29 15:47:00,69.4,59.2,29.95,SSE,148,1.2,1.2,70,0.00,BKN,,0.01,WeatherDisplay:10.37,2013-04-29 19:47:00,
2013-04-29 15:52:00,69.4,58.0,29.94,SSE,150,0.0,0.0,67,0.00,BKN,,0.01,WeatherDisplay:10.37,2013-04-29 19:52:00,
2013-04-29 15:57:00,69.5,58.5,29.94,SSE,150,2.0,2.0,68,0.00,BKN,,0.01,WeatherDisplay:10.37,2013-04-29 19:57:00,
2013-04-29 16:02:00,69.7,59.1,29.94,East,90,1.2,0.0,69,0.00,BKN,,0.01,WeatherDisplay:10.37,2013-04-29 20:02:00,
2013-04-29 16:07:00,69.6,57.7,29.94,East,90,0.0,0.0,66,0.00,BKN,,0.01,WeatherDisplay:10.37,2013-04-29 20:07:00,
2013-04-29 16:12:00,69.6,58.2,29.93,ENE,74,0.0,0.0,67,0.00,BKN,,0.01,WeatherDisplay:10.37,2013-04-29 20:12:00,
2013-04-29 16:17:00,69.6,57.7,29.93,East,97,0.0,0.0,66,0.00,BKN,,0.01,WeatherDisplay:10.37,2013-04-29 20:17:00,
2013-04-29 16:22:00,69.6,57.3,29.93,SSE,153,0.0,0.0,65,0.00,BKN,,0.01,WeatherDisplay:10.37,2013-04-29 20:22:00,
2013-04-29 16:27:00,69.7,58.3,29.92,SSE,153,0.0,0.0,67,0.00,BKN,,0.01,WeatherDisplay:10.37,2013-04-29 20:27:00,
2013-04-29 16:32:00,69.9,57.6,29.92,SSE,157,0.0,0.0,65,0.00,BKN,,0.01,WeatherDisplay:10.37,2013-04-29 20:32:00,
2013-04-29 16:37:00,70.0,56.8,29.92,NNW,329,3.5,3.5,63,0.00,BKN,,0.01,WeatherDisplay:10.37,2013-04-29 20:37:00,
2013-04-29 16:42:00,70.0,55.5,29.92,NNW,329,2.3,0.0,60,0.00,BKN,,0.01,WeatherDisplay:10.37,2013-04-29 20:42:00,
2013-04-29 16:47:00,70.1,57.8,29.91,NW,314,0.0,0.0,65,0.00,BKN,,0.01,WeatherDisplay:10.37,2013-04-29 20:47:00,
2013-04-29 16:52:00,70.1,57.8,29.91,SSW,209,1.2,1.2,65,0.00,BKN,,0.01,WeatherDisplay:10.37,2013-04-29 20:52:00,
2013-04-29 16:57:00,70.3,58.8,29.91,WSW,258,0.0,0.0,67,0.00,BKN,,0.01,WeatherDisplay:10.37,2013-04-29 20:57:00,
2013-04-29 17:02:00,70.3,56.7,29.91,WSW,258,0.0,0.0,62,0.00,BKN,,0.01,WeatherDisplay:10.37,2013-04-29 21:02:00,
2013-04-29 17:07:00,70.5,58.6,29.91,NE,46,3.5,3.5,66,0.00,BKN,,0.01,WeatherDisplay:10.37,2013-04-29 21:07:00,
2013-04-29 17:12:00,70.3,55.8,29.91,WSW,242,3.5,3.5,60,0.00,BKN,,0.01,WeatherDisplay:10.37,2013-04-29 21:12:00,
2013-04-29 17:17:00,70.4,56.3,29.91,WNW,290,1.0,1.0,61,0.00,BKN,,0.01,WeatherDisplay:10.37,2013-04-29 21:17:00,
2013-04-29 17:22:00,70.5,56.4,29.90,WSW,238,2.3,2.3,61,0.00,BKN,,0.01,WeatherDisplay:10.37,2013-04-29 21:22:00,
2013-04-29 17:27:00,70.6,58.7,29.90,ENE,58,1.2,0.0,66,0.00,BKN,,0.01,WeatherDisplay:10.37,2013-04-29 21:27:00,
2013-04-29 17:32:00,70.7,57.0,29.90,ENE,58,0.0,0.0,62,0.00,BKN,,0.01,WeatherDisplay:10.37,2013-04-29 21:32:00,
2013-04-29 17:37:00,70.6,57.8,29.90,NE,44,0.0,0.0,64,0.00,BKN,,0.01,WeatherDisplay:10.37,2013-04-29 21:37:00,
2013-04-29 17:42:00,70.6,55.6,29.90,West,273,4.6,4.6,59,0.00,BKN,,0.01,WeatherDisplay:10.37,2013-04-29 21:42:00,
2013-04-29 17:47:00,70.9,56.3,29.90,WNW,290,2.3,2.3,60,0.00,BKN,,0.01,WeatherDisplay:10.37,2013-04-29 21:47:00,
2013-04-29 17:52:00,71.2,56.6,29.90,NW,325,2.3,2.3,60,0.00,BKN,,0.01,WeatherDisplay:10.37,2013-04-29 21:52:00,
2013-04-29 17:57:00,71.3,57.2,29.90,WSW,242,1.2,0.0,61,0.00,BKN,,0.01,WeatherDisplay:10.37,2013-04-29 21:57:00,
2013-04-29 18:02:00,71.2,55.7,29.90,WNW,296,2.0,2.0,58,0.00,BKN,,0.01,WeatherDisplay:10.37,2013-04-29 22:02:00,
2013-04-29 18:07:00,71.3,57.2,29.90,North,11,2.3,2.3,61,0.00,BKN,,0.01,WeatherDisplay:10.37,2013-04-29 22:07:00,
2013-04-29 18:12:00,71.2,58.0,29.90,North,5,1.2,1.2,63,0.00,BKN,,0.01,WeatherDisplay:10.37,2013-04-29 22:12:00,
2013-04-29 18:17:00,71.2,57.5,29.90,NNW,331,0.0,0.0,62,0.00,BKN,,0.01,WeatherDisplay:10.37,2013-04-29 22:17:00,
2013-04-29 18:22:00,71.0,57.3,29.90,NNW,331,1.2,0.0,62,0.00,BKN,,0.01,WeatherDisplay:10.37,2013-04-29 22:22:00,
2013-04-29 18:27:00,70.9,58.1,29.90,NNW,329,0.0,0.0,64,0.00,BKN,,0.01,WeatherDisplay:10.37,2013-04-29 22:27:00,
2013-04-29 18:32:00,70.8,57.6,29.90,NW,309,0.0,0.0,63,0.00,BKN,,0.01,WeatherDisplay:10.37,2013-04-29 22:32:00,
2013-04-29 18:37:00,70.8,58.4,29.90,WNW,294,0.0,0.0,65,0.00,BKN,,0.01,WeatherDisplay:10.37,2013-04-29 22:37:00,
2013-04-29 18:42:00,70.6,57.8,29.90,NW,320,2.0,2.0,64,0.00,BKN,,0.01,WeatherDisplay:10.37,2013-04-29 22:42:00,
2013-04-29 18:47:00,70.5,57.7,29.90,NNW,328,0.0,0.0,64,0.00,BKN,,0.01,WeatherDisplay:10.37,2013-04-29 22:47:00,
2013-04-29 18:52:00,70.4,57.6,29.90,NNW,329,0.0,0.0,64,0.00,BKN,,0.01,WeatherDisplay:10.37,2013-04-29 22:52:00,
2013-04-29 18:57:00,70.3,56.7,29.90,NNW,329,1.0,2.0,62,0.00,BKN,,0.01,WeatherDisplay:10.37,2013-04-29 22:57:00,
2013-04-29 19:02:00,70.2,57.0,29.90,NNW,329,0.0,0.0,63,0.00,BKN,,0.01,WeatherDisplay:10.37,2013-04-29 23:02:00,
2013-04-29 19:07:00,70.1,56.5,29.90,WSW,245,2.3,0.0,62,0.00,BKN,,0.01,WeatherDisplay:10.37,2013-04-29 23:07:00,
2013-04-29 19:12:00,70.0,57.3,29.90,WSW,246,0.0,0.0,64,0.00,SCT,,0.01,WeatherDisplay:10.37,2013-04-29 23:12:00,
2013-04-29 19:17:00,69.9,56.7,29.90,WSW,246,0.0,0.0,63,0.00,SCT,,0.01,WeatherDisplay:10.37,2013-04-29 23:17:00,
2013-04-29 19:22:00,69.8,57.1,29.90,WSW,246,0.0,0.0,64,0.00,SCT,,0.01,WeatherDisplay:10.37,2013-04-29 23:22:00,
2013-04-29 19:27:00,69.7,57.0,29.91,WSW,246,0.0,0.0,64,0.00,SCT,,0.01,WeatherDisplay:10.37,2013-04-29 23:27:00,
2013-04-29 19:32:00,69.5,56.8,29.91,WSW,246,0.0,0.0,64,0.00,SCT,,0.01,WeatherDisplay:10.37,2013-04-29 23:32:00,
2013-04-29 19:37:00,69.4,57.1,29.91,WSW,246,0.0,0.0,65,0.00,SCT,,0.01,WeatherDisplay:10.37,2013-04-29 23:37:00,
2013-04-29 19:42:00,69.2,57.4,29.91,WSW,246,0.0,0.0,66,0.00,SCT,,0.01,WeatherDisplay:10.37,2013-04-29 23:42:00,
2013-04-29 19:47:00,69.0,57.2,29.91,WSW,246,0.0,0.0,66,0.00,SCT,,0.01,WeatherDisplay:10.37,2013-04-29 23:47:00,
2013-04-29 19:52:00,68.8,57.0,29.91,WSW,246,0.0,0.0,66,0.00,SCT,,0.01,WeatherDisplay:10.37,2013-04-29 23:52:00,
2013-04-29 19:57:00,68.5,56.7,29.91,WSW,246,0.0,0.0,66,0.00,SCT,,0.01,WeatherDisplay:10.37,2013-04-29 23:57:00,
2013-04-29 20:02:00,68.3,56.9,29.92,WSW,246,0.0,0.0,67,0.00,SCT,,0.01,WeatherDisplay:10.37,2013-04-30 00:02:00,
2013-04-29 20:07:00,68.1,57.1,29.92,WSW,246,0.0,0.0,68,0.00,SCT,,0.01,WeatherDisplay:10.37,2013-04-30 00:07:00,
2013-04-29 20:12:00,67.9,56.9,29.92,WSW,246,0.0,0.0,68,0.00,SCT,,0.01,WeatherDisplay:10.37,2013-04-30 00:12:00,
2013-04-29 20:17:00,67.7,57.2,29.92,WSW,246,0.0,0.0,69,0.00,SCT,,0.01,WeatherDisplay:10.37,2013-04-30 00:17:00,
2013-04-29 20:22:00,67.4,57.7,29.92,WSW,246,0.0,0.0,71,0.00,SCT,,0.01,WeatherDisplay:10.37,2013-04-30 00:22:00,
2013-04-29 20:27:00,67.0,57.7,29.92,WSW,246,0.0,0.0,72,0.00,SCT,,0.01,WeatherDisplay:10.37,2013-04-30 00:27:00,
2013-04-29 20:32:00,66.7,58.1,29.92,WSW,246,0.0,0.0,74,0.00,SCT,,0.01,WeatherDisplay:10.37,2013-04-30 00:32:00,
2013-04-29 20:37:00,66.4,58.2,29.92,WSW,246,0.0,0.0,75,0.00,SCT,,0.01,WeatherDisplay:10.37,2013-04-30 00:37:00,
2013-04-29 20:42:00,66.0,58.2,29.92,WSW,246,0.0,0.0,76,0.00,SCT,,0.01,WeatherDisplay:10.37,2013-04-30 00:42:00,
2013-04-29 20:47:00,65.7,58.3,29.93,WSW,246,0.0,0.0,77,0.00,SCT,,0.01,WeatherDisplay:10.37,2013-04-30 00:47:00,
2013-04-29 20:52:00,65.3,58.3,29.93,WSW,246,0.0,0.0,78,0.00,SCT,,0.01,WeatherDisplay:10.37,2013-04-30 00:52:00,
2013-04-29 20:57:00,65.0,58.0,29.93,WSW,246,0.0,0.0,78,0.00,SCT,,0.01,WeatherDisplay:10.37,2013-04-30 00:57:00,
2013-04-29 21:02:00,64.7,58.0,29.93,WSW,246,0.0,0.0,79,0.00,SCT,,0.01,WeatherDisplay:10.37,2013-04-30 01:02:00,
2013-04-29 21:07:00,64.3,58.0,29.93,WSW,246,0.0,0.0,80,0.00,SCT,,0.01,WeatherDisplay:10.37,2013-04-30 01:07:00,
2013-04-29 21:12:00,64.0,58.1,29.93,WSW,246,0.0,0.0,81,0.00,SCT,,0.01,WeatherDisplay:10.37,2013-04-30 01:12:00,
2013-04-29 21:17:00,63.6,58.0,29.94,WSW,246,0.0,0.0,82,0.00,SCT,,0.01,WeatherDisplay:10.37,2013-04-30 01:17:00,
2013-04-29 21:22:00,63.2,57.6,29.94,WSW,246,0.0,0.0,82,0.00,SCT,,0.01,WeatherDisplay:10.37,2013-04-30 01:22:00,
2013-04-29 21:27:00,63.0,57.8,29.94,WSW,246,0.0,0.0,83,0.00,SCT,,0.01,WeatherDisplay:10.37,2013-04-30 01:27:00,
2013-04-29 21:32:00,62.8,57.6,29.94,WSW,246,0.0,0.0,83,0.00,SCT,,0.01,WeatherDisplay:10.37,2013-04-30 01:32:00,
2013-04-29 21:37:00,62.6,57.4,29.94,WSW,246,0.0,0.0,83,0.00,SCT,,0.01,WeatherDisplay:10.37,2013-04-30 01:37:00,
2013-04-29 21:42:00,62.5,57.9,29.95,WSW,246,0.0,0.0,85,0.00,SCT,,0.01,WeatherDisplay:10.37,2013-04-30 01:42:00,
2013-04-29 21:47:00,62.4,58.2,29.95,WSW,246,0.0,0.0,86,0.00,SCT,,0.01,WeatherDisplay:10.37,2013-04-30 01:47:00,
2013-04-29 21:52:00,62.3,57.7,29.95,WSW,246,0.0,0.0,85,0.00,SCT,,0.01,WeatherDisplay:10.37,2013-04-30 01:52:00,
2013-04-29 21:57:00,62.1,57.9,29.95,WSW,246,0.0,0.0,86,0.00,SCT,,0.01,WeatherDisplay:10.37,2013-04-30 01:57:00,
2013-04-29 22:02:00,61.9,57.7,29.95,WSW,246,0.0,0.0,86,0.00,SCT,,0.01,WeatherDisplay:10.37,2013-04-30 02:02:00,
2013-04-29 22:07:00,61.7,57.5,29.95,WSW,246,0.0,0.0,86,0.00,SCT,,0.01,WeatherDisplay:10.37,2013-04-30 02:07:00,
2013-04-29 22:12:00,61.6,57.7,29.95,WSW,246,0.0,0.0,87,0.00,FEW,,0.01,WeatherDisplay:10.37,2013-04-30 02:12:00,
2013-04-29 22:17:00,61.4,57.5,29.95,WSW,246,0.0,0.0,87,0.00,FEW,,0.01,WeatherDisplay:10.37,2013-04-30 02:17:00,
2013-04-29 22:22:00,61.3,57.4,29.95,WSW,246,0.0,0.0,87,0.00,FEW,,0.01,WeatherDisplay:10.37,2013-04-30 02:22:00,
2013-04-29 22:27:00,61.1,57.2,29.95,WSW,246,0.0,0.0,87,0.00,FEW,,0.01,WeatherDisplay:10.37,2013-04-30 02:27:00,
2013-04-29 22:32:00,61.0,57.1,29.95,WSW,246,0.0,0.0,87,0.00,FEW,,0.01,WeatherDisplay:10.37,2013-04-30 02:32:00,
2013-04-29 22:37:00,60.8,56.9,29.96,WSW,246,0.0,0.0,87,0.00,FEW,,0.01,WeatherDisplay:10.37,2013-04-30 02:37:00,
2013-04-29 22:42:00,60.6,57.0,29.96,WSW,246,0.0,0.0,88,0.00,FEW,,0.01,WeatherDisplay:10.37,2013-04-30 02:42:00,
2013-04-29 22:47:00,60.4,56.8,29.96,WSW,246,0.0,0.0,88,0.00,FEW,,0.01,WeatherDisplay:10.37,2013-04-30 02:47:00,
2013-04-29 22:52:00,60.2,56.9,29.95,WSW,246,0.0,0.0,89,0.00,FEW,,0.01,WeatherDisplay:10.37,2013-04-30 02:52:00,
2013-04-29 22:57:00,59.9,56.6,29.95,WSW,246,0.0,0.0,89,0.00,FEW,,0.01,WeatherDisplay:10.37,2013-04-30 02:57:00,
2013-04-29 23:02:00,59.8,56.6,29.95,WSW,246,0.0,0.0,89,0.00,BKN,,0.01,WeatherDisplay:10.37,2013-04-30 03:02:00,
2013-04-29 23:07:00,59.6,56.7,29.95,WSW,246,0.0,0.0,90,0.00,BKN,,0.01,WeatherDisplay:10.37,2013-04-30 03:07:00,
2013-04-29 23:12:00,59.4,56.5,29.95,WSW,246,0.0,0.0,90,0.00,-DZ,,0.01,WeatherDisplay:10.37,2013-04-30 03:12:00,
2013-04-29 23:17:00,59.3,56.4,29.95,WSW,246,0.0,0.0,90,0.00,-DZ,,0.01,WeatherDisplay:10.37,2013-04-30 03:17:00,
2013-04-29 23:22:00,59.1,56.2,29.95,WSW,246,0.0,0.0,90,0.00,SCT,,0.01,WeatherDisplay:10.37,2013-04-30 03:22:00,
2013-04-29 23:27:00,59.0,56.4,29.95,WSW,246,0.0,0.0,91,0.00,SCT,,0.01,WeatherDisplay:10.37,2013-04-30 03:27:00,
2013-04-29 23:32:00,58.9,56.3,29.95,WSW,246,0.0,0.0,91,0.00,SCT,,0.01,WeatherDisplay:10.37,2013-04-30 03:32:00,
2013-04-29 23:37:00,58.8,56.2,29.95,WSW,246,0.0,0.0,91,0.00,SCT,,0.01,WeatherDisplay:10.37,2013-04-30 03:37:00,
2013-04-29 23:42:00,58.7,56.1,29.95,WSW,246,0.0,0.0,91,0.00,SCT,,0.01,WeatherDisplay:10.37,2013-04-30 03:42:00,
2013-04-29 23:47:00,58.6,56.0,29.95,WSW,246,0.0,0.0,91,0.00,SCT,,0.01,WeatherDisplay:10.37,2013-04-30 03:47:00,
2013-04-29 23:52:00,58.6,56.0,29.95,WSW,246,0.0,0.0,91,0.00,SCT,,0.01,WeatherDisplay:10.37,2013-04-30 03:52:00,
2013-04-29 23:57:00,58.5,56.2,29.95,WSW,246,0.0,0.0,92,0.00,SCT,,0.01,WeatherDisplay:10.37,2013-04-30 03:57:00,